EW0853 Weather Reports


time (UTC)temp
F
wind
direction
speed
knots
gust
knots
rain 1hr
in
rain 24hr
in
rain mn
in
humidity
%
barometer
mb
20260906083043 69 192 3.5 6.1 0.00 0.00 0.00 77 1016.8
20260906081543 69 129 0.9 5.2 0.00 0.00 0.00 77 1017.2
20260906080041 70 165 1.7 3.5 0.00 0.00 0.00 77 1017.2
20260906074545 70 207 1.7 3.5 0.00 0.00 0.00 76 1017.2
20260906073033 71 175 0.9 4.3 0.00 0.00 0.00 76 1017.3
20260906071532 71 202 1.7 3.5 0.00 0.00 0.00 76 1017.3
20260906070030 71 136 0.9 3.5 0.00 0.00 0.00 76 1017.5
20260906064529 71 169 1.7 5.2 0.00 0.00 0.00 76 1017.4
20260906063028 72 143 1.7 6.1 0.00 0.00 0.00 75 1017.4
20260906061525 72 153 1.7 7.0 0.00 0.00 0.00 75 1017.4
20260906060022 72 188 3.5 7.0 0.00 0.00 0.00 75 1017.2
20260906054520 72 86 4.3 7.0 0.00 0.00 0.00 75 1017.4
20260906053019 72 108 2.6 6.1 0.00 0.00 0.00 75 1017.1
20260906051517 72 96 4.3 6.1 0.00 0.00 0.00 75 1017.3
20260906050014 72 78 1.7 4.3 0.00 0.00 0.00 76 1017.1
20260906044512 72 101 2.6 4.3 0.00 0.00 0.00 76 1017.3
20260906043020 72 92 1.7 4.3 0.00 0.00 0.00 77 1017.1
20260906041509 71 119 1.7 3.5 0.00 0.00 0.00 77 1017.1
20260906040009 72 88 0.0 0.0 0.00 0.00 0.00 76 1017.0
20260906034505 72 88 0.0 0.9 0.00 0.00 0.00 76 1017.0
20260906033007 72 88 0.0 0.0 0.00 0.00 0.00 76 1016.8
20260906031501 72 88 0.0 0.9 0.00 0.00 0.00 76 1016.8
20260906030100 72 88 0.9 2.6 0.00 0.00 0.00 76 1016.9
20260906024558 73 105 0.0 0.0 0.00 0.00 0.00 76 1016.5
20260906023056 72 105 0.0 0.0 0.00 0.00 0.00 76 1016.2
20260906021550 73 105 0.0 0.0 0.00 0.00 0.00 76 1016.0
20260906020103 73 105 0.0 0.9 0.00 0.00 0.00 75 1015.8
20260906014548 74 105 0.0 0.9 0.00 0.00 0.00 74 1015.5
20260906013057 74 205 0.0 2.6 0.00 0.00 0.00 74 1015.3
20260906011559 75 129 0.9 5.2 0.00 0.00 0.00 73 1015.4
20260906010045 75 110 1.7 4.3 0.00 0.00 0.00 73 1015.1
20260906004543 76 136 4.3 7.0 0.00 0.00 0.00 73 1015.3
20260906003040 76 136 2.6 6.1 0.00 0.00 0.00 72 1015.1
20260906001540 77 138 2.6 6.1 0.00 0.00 0.00 71 1015.1
20260906000050 79 118 1.7 5.2 0.00 0.00 0.00 69 1015.0
20260905234534 80 143 2.6 7.0 0.00 0.00 0.00 67 1015.1
20260905233035 82 139 1.7 3.5 0.00 0.00 0.00 65 1015.1
20260905231529 81 121 2.6 7.0 0.00 0.00 0.00 65 1015.0
20260905230024 81 107 4.3 9.6 0.00 0.00 0.00 64 1014.8
20260905224522 81 105 7.8 11.3 0.00 0.00 0.00 63 1014.9
20260905223019 82 103 7.0 10.4 0.00 0.00 0.00 64 1014.9
20260905221516 82 108 6.1 11.3 0.00 0.00 0.00 64 1014.9
20260905220014 82 72 6.1 11.3 0.00 0.00 0.00 65 1014.9
20260905214517 83 136 5.2 11.3 0.00 0.00 0.00 66 1014.9
20260905213012 83 114 7.0 11.3 0.00 0.00 0.00 64 1015.0
20260905211509 84 87 6.1 9.6 0.00 0.00 0.00 65 1015.0
20260905210007 85 95 7.0 10.4 0.00 0.00 0.00 63 1014.9
20260905204508 85 99 6.1 10.4 0.00 0.00 0.00 63 1015.0
20260905203004 85 110 7.0 9.6 0.00 0.00 0.00 64 1014.9
20260905201508 85 76 7.0 13.9 0.00 0.00 0.00 64 1014.7
20260905200001 86 85 5.2 11.3 0.00 0.00 0.00 63 1014.8
20260905194610 86 95 6.1 9.6 0.00 0.00 0.00 64 1015.2
20260905193057 86 113 5.2 7.8 0.00 0.00 0.00 63 1015.4
20260905191558 86 79 5.2 7.8 0.00 0.00 0.00 63 1015.5
20260905190053 87 103 5.2 7.8 0.00 0.00 0.00 64 1015.5
20260905184611 86 82 1.7 7.8 0.00 0.00 0.00 65 1015.6
20260905183052 86 94 3.5 7.0 0.00 0.00 0.00 65 1015.5
20260905181556 86 134 3.5 7.0 0.00 0.00 0.00 65 1015.5
20260905180050 86 101 4.3 7.8 0.00 0.00 0.00 65 1015.4
20260905174546 86 126 3.5 6.1 0.00 0.00 0.00 65 1015.5
20260905173042 86 148 3.5 7.0 0.00 0.00 0.00 65 1015.6
20260905171542 86 82 5.2 8.7 0.00 0.00 0.00 65 1015.6
20260905170039 86 106 3.5 7.8 0.00 0.00 0.00 65 1015.7
20260905164536 85 147 2.6 7.8 0.00 0.00 0.00 66 1015.9
20260905163034 85 105 6.1 9.6 0.00 0.00 0.00 64 1015.9
20260905161631 85 103 6.1 10.4 0.00 0.00 0.00 65 1015.9
20260905160030 85 123 4.3 9.6 0.00 0.00 0.00 66 1015.8
20260905154529 85 124 3.5 8.7 0.00 0.00 0.00 65 1015.7
20260905153021 84 99 4.3 8.7 0.00 0.00 0.00 67 1015.6
20260905151519 84 104 6.1 9.6 0.00 0.00 0.00 66 1015.5
20260905150014 83 101 2.6 6.1 0.00 0.00 0.00 67 1015.3
20260905144510 82 102 4.3 7.8 0.00 0.00 0.00 67 1015.4
20260905143008 81 79 5.2 7.0 0.00 0.00 0.00 68 1015.2
20260905141503 80 85 3.5 7.0 0.00 0.00 0.00 71 1015.1
20260905140059 79 84 1.7 4.3 0.00 0.00 0.00 73 1014.8
20260905134555 78 94 1.7 4.3 0.00 0.00 0.00 73 1014.7
20260905133052 78 103 1.7 4.3 0.00 0.00 0.00 75 1014.6
20260905131548 76 96 0.9 2.6 0.00 0.00 0.00 76 1014.4
20260905130147 75 94 0.9 1.7 0.00 0.00 0.00 77 1014.2
20260905124545 75 33 0.0 0.9 0.00 0.00 0.00 78 1014.1
20260905123045 74 72 0.0 2.6 0.00 0.00 0.00 79 1014.2
20260905121544 73 86 0.9 2.6 0.00 0.00 0.00 80 1014.1
20260905120047 72 88 0.0 1.7 0.00 0.00 0.00 80 1013.9
20260905114541 71 88 0.0 0.9 0.00 0.00 0.00 81 1013.7
20260905113048 71 88 0.0 0.9 0.00 0.00 0.00 81 1013.8
20260905111603 70 88 0.0 0.9 0.00 0.00 0.00 80 1013.3
20260905110040 72 88 0.0 0.0 0.00 0.00 0.00 80 1013.1
20260905104534 71 88 0.0 0.0 0.00 0.00 0.00 80 1013.0
20260905103036 72 88 0.0 0.0 0.00 0.00 0.00 80 1013.0
20260905101546 72 88 0.0 0.0 0.00 0.00 0.00 80 1013.1
20260905100030 71 88 0.0 0.0 0.00 0.00 0.00 80 1013.2
20260905094528 73 88 0.0 0.0 0.00 0.00 0.00 80 1013.2
20260905093026 72 88 0.0 0.9 0.00 0.00 0.00 80 1013.3
20260905091526 72 88 0.0 0.9 0.00 0.00 0.00 80 1013.4
20260905090023 72 88 0.0 0.0 0.00 0.00 0.00 80 1013.5
20260905084521 72 88 0.0 0.0 0.00 0.00 0.00 79 1013.5